�N����,����,����,����,����,�C��,���x,�~����,�S�V����,�ő�u�ԕ���,,,
,,,,,,,,,����,����,����,�N��
yyyy/mm/dd,hh:mm:ss,(16),16����,m/s,��,%,mm,KW/�u,(16),16����,m/s,Time
2014/4/1,1:00:00,13,���k��,4.4,3,55,0,0,12,��,10.2,43
2014/4/1,2:00:00,13,���k��,4.4,3.1,55,0,0,11,���쐼,11.4,36
2014/4/1,3:00:00,12,��,3.5,2.7,56.7,0,0,11,���쐼,8.3,0
2014/4/1,4:00:00,14,�k��,4.3,2.5,58.4,0,0,7,��쓌,9.5,21
2014/4/1,5:00:00,14,�k��,2.3,1.4,64.5,0,0,14,�k��,7.7,5
2014/4/1,6:00:00,14,�k��,4,2.9,57.4,0,0.05,15,�k�k��,7.1,52
2014/4/1,7:00:00,13,���k��,5.8,4,49.5,0,0.24,11,���쐼,9.7,44
2014/4/1,8:00:00,14,�k��,6.1,4.6,39.8,0,0.46,9,��쐼,11.4,15
2014/4/1,9:00:00,13,���k��,4.6,5.2,39,0,0.65,2,�k��,15.7,13
2014/4/1,10:00:00,13,���k��,5.1,6.2,33.4,0,0.8,13,���k��,11.2,6
2014/4/1,11:00:00,14,�k��,7.2,6.5,33.4,0,0.91,9,��쐼,13.9,57
2014/4/1,12:00:00,15,�k�k��,5.1,7.3,37.3,0,0.94,12,��,11.5,20
2014/4/1,13:00:00,11,���쐼,6.8,8,32.1,0,0.9,6,�쓌,12,18
2014/4/1,14:00:00,14,�k��,5.7,8,35.5,0,0.79,9,��쐼,11,2
2014/4/1,15:00:00,14,�k��,6,7.7,35.8,0,0.64,15,�k�k��,12.5,26
2014/4/1,16:00:00,15,�k�k��,5.7,7.3,34.9,0,0.44,15,�k�k��,12,20
2014/4/1,17:00:00,15,�k�k��,5,6.5,38.4,0,0.22,15,�k�k��,12.6,6
2014/4/1,18:00:00,13,���k��,3.4,4.9,42.9,0,0.04,13,���k��,9,3
2014/4/1,19:00:00,13,���k��,2.8,3.7,48.5,0,0,10,�쐼,5.8,54
2014/4/1,20:00:00,12,��,3.2,3.3,49.3,0,0,11,���쐼,5.9,14
2014/4/1,21:00:00,6,�쓌,0.9,1.1,61.2,0,0,11,���쐼,5.7,16
2014/4/1,22:00:00,11,���쐼,2.2,-1.6,79.7,0,0,11,���쐼,2.5,58
2014/4/1,23:00:00,16,�k,2.3,-2.5,78.8,0,0,1,�k�k��,3.8,54
2014/4/1,0:00:00,10,�쐼,0.3,-3.6,85.9,0,0,4,��,3.4,10
2014/4/2,1:00:00,12,��,0.8,-4.4,89.4,0,0,13,���k��,2.4,24
2014/4/2,2:00:00,14,�k��,0.4,-4.6,92.8,0,0,15,�k�k��,2.2,21
2014/4/2,3:00:00,12,��,1,-4.7,93.7,0,0,11,���쐼,1.9,36
2014/4/2,4:00:00,13,���k��,0.6,-4.8,93.8,0,0,12,��,1.9,0
2014/4/2,5:00:00,12,��,0.7,-5.1,93.9,0,0.01,12,��,2.1,37
2014/4/2,6:00:00,12,��,0.9,-4.1,94.5,0,0.05,12,��,1.8,43
2014/4/2,7:00:00,13,���k��,1.7,-1,81.5,0,0.22,12,��,2.5,40
2014/4/2,8:00:00,1,�É�,0.2,2.4,78.8,0,0.42,2,�k��,2.2,45
2014/4/2,9:00:00,6,�쓌,2.4,1.4,71.6,0,0.62,6,�쓌,4.4,21
2014/4/2,10:00:00,7,��쓌,2.8,2.3,71.2,0,0.77,6,�쓌,4.6,58
2014/4/2,11:00:00,5,���쓌,2.8,2.9,73.5,0,0.86,6,�쓌,5.3,32
2014/4/2,12:00:00,6,�쓌,3.2,2.4,71.8,0,0.89,4,��,5,56
2014/4/2,13:00:00,6,�쓌,3.2,2.3,73.3,0,0.85,5,���쓌,5.2,5
2014/4/2,14:00:00,6,�쓌,2.8,1.9,73,0,0.75,6,�쓌,5.7,11
2014/4/2,15:00:00,5,���쓌,2.3,2.2,77.6,0,0.6,6,�쓌,5.3,5
2014/4/2,16:00:00,5,���쓌,2.4,1.8,80.7,0,0.42,5,���쓌,4.2,55
2014/4/2,17:00:00,5,���쓌,2.2,1.2,85.2,0,0.21,6,�쓌,4.2,2
2014/4/2,18:00:00,2,�k��,1.3,-0.8,91.4,0,0.05,4,��,3.2,3
2014/4/2,19:00:00,2,�k��,1.6,-1.2,92.4,0,0,2,�k��,2.3,55
2014/4/2,20:00:00,16,�k,1,-1.8,96.4,0,0,1,�k�k��,2.4,34
2014/4/2,21:00:00,15,�k�k��,0.4,-0.4,94.1,0,0,16,�k,2.8,53
2014/4/2,22:00:00,15,�k�k��,0.9,0.2,93.7,0,0,16,�k,1.7,55
2014/4/2,23:00:00,16,�k,1.3,0.6,92.3,0,0,1,�k�k��,2.5,57
2014/4/2,0:00:00,16,�k,2.1,0.5,93.1,0,0,16,�k,3.5,55
2014/4/3,1:00:00,15,�k�k��,1.7,0.4,93.8,0,0,16,�k,3.6,34
2014/4/3,2:00:00,15,�k�k��,1.5,0.5,93.7,0,0,16,�k,3.2,11
2014/4/3,3:00:00,15,�k�k��,1.6,0.4,92.9,0,0,15,�k�k��,4.2,35
2014/4/3,4:00:00,14,�k��,1.6,0.4,92.3,0,0,16,�k,2.7,6
2014/4/3,5:00:00,14,�k��,0.8,0.3,91.8,0,0,13,���k��,3.1,42
2014/4/3,6:00:00,13,���k��,2.5,0.4,91.7,0,0.02,14,�k��,4.2,46
2014/4/3,7:00:00,12,��,2.7,0.6,93.6,0,0.11,14,�k��,4.6,22
2014/4/3,8:00:00,14,�k��,2.1,1,90.6,0,0.15,2,�k��,3.7,26
2014/4/3,9:00:00,11,���쐼,1.1,1.6,85.7,0,0.22,12,��,2.8,38
2014/4/3,10:00:00,4,��,1.2,3.8,83.5,0,0.49,6,�쓌,2.6,58
2014/4/3,11:00:00,5,���쓌,2.9,3.3,79.2,0,0.72,5,���쓌,5.3,30
2014/4/3,12:00:00,4,��,2.5,2.8,86.5,0,0.67,5,���쓌,6.3,34
2014/4/3,13:00:00,5,���쓌,2,2.7,88.3,0,0.5,5,���쓌,4.7,34
2014/4/3,14:00:00,5,���쓌,2.5,2.1,88.8,0,0.46,6,�쓌,4.5,28
2014/4/3,15:00:00,5,���쓌,1.7,2.1,93.7,0,0.26,6,�쓌,3.3,2
2014/4/3,16:00:00,4,��,1.6,2.1,96.1,0,0.15,4,��,2.5,56
2014/4/3,17:00:00,4,��,2.2,1.4,98.1,0,0.07,4,��,2.8,55
2014/4/3,18:00:00,4,��,1.4,1.2,99.8,0,0.02,3,���k��,3.5,5
2014/4/3,19:00:00,3,���k��,1.7,1.2,100,0,0,2,�k��,2.5,58
2014/4/3,20:00:00,14,�k��,1.7,1.3,100,0,0,15,�k�k��,2.8,57
2014/4/3,21:00:00,15,�k�k��,0.9,1.4,100,0,0,13,���k��,2.4,1
2014/4/3,22:00:00,2,�k��,3.6,2,100,0,0,2,�k��,5.4,45
2014/4/3,23:00:00,15,�k�k��,0.3,1.7,100,0,0,2,�k��,4.4,1
2014/4/3,0:00:00,14,�k��,0.8,1.6,100,0,0,12,��,2.5,6
2014/4/4,1:00:00,14,�k��,0.8,1.5,100,0,0,14,�k��,2.4,37
2014/4/4,2:00:00,2,�k��,2.9,2.1,100,0,0,2,�k��,4.1,54
2014/4/4,3:00:00,2,�k��,1.9,2,100,0,0,2,�k��,4.4,20
2014/4/4,4:00:00,16,�k,1.5,2.1,100,1.5,0,2,�k��,3.9,43
2014/4/4,5:00:00,14,�k��,1.4,2.2,100,2.5,0,13,���k��,2.5,34
2014/4/4,6:00:00,14,�k��,2,2.5,100,3,0.01,14,�k��,3.3,56
2014/4/4,7:00:00,15,�k�k��,2,2.3,100,4,0.02,14,�k��,3.7,24
2014/4/4,8:00:00,16,�k,2.3,2.7,100,6,0.03,15,�k�k��,4.1,45
2014/4/4,9:00:00,14,�k��,2.3,3.1,100,8,0.02,16,�k,5.3,41
2014/4/4,10:00:00,14,�k��,3.1,3.2,100,6,0.04,11,���쐼,5.4,57
2014/4/4,11:00:00,13,���k��,3.8,2.9,100,5.5,0.05,15,�k�k��,6,54
2014/4/4,12:00:00,13,���k��,4.4,2.8,100,5.5,0.05,3,���k��,7.4,52
2014/4/4,13:00:00,13,���k��,4.3,2.5,100,5.5,0.04,14,�k��,8.6,37
2014/4/4,14:00:00,13,���k��,5,2.3,100,5.5,0.04,14,�k��,8.7,56
2014/4/4,15:00:00,13,���k��,6.5,2.3,97.8,2.5,0.14,14,�k��,10.8,57
2014/4/4,16:00:00,13,���k��,6.9,2,97,0.5,0.13,14,�k��,11.4,49
2014/4/4,17:00:00,14,�k��,7.1,2,95.7,0,0.07,14,�k��,12.9,49
2014/4/4,18:00:00,14,�k��,6.3,2.2,95,0,0.03,14,�k��,13,5
2014/4/4,19:00:00,14,�k��,4.9,2.4,94.8,0,0,8,��,11.1,5
2014/4/4,20:00:00,14,�k��,2.8,2,96.6,0,0,15,�k�k��,7.9,0
2014/4/4,21:00:00,14,�k��,3,1.7,97.4,0,0,15,�k�k��,5.3,55
2014/4/4,22:00:00,15,�k�k��,2.3,1.5,96.3,0,0,14,�k��,5.5,36
2014/4/4,23:00:00,9,��쐼,1.1,0.6,99.6,0,0,12,��,3.8,12
2014/4/4,0:00:00,15,�k�k��,0.8,0.4,99.9,0,0,9,��쐼,3.1,25
2014/4/5,1:00:00,3,���k��,0.6,0.3,100,0,0,16,�k,1.8,26
2014/4/5,2:00:00,11,���쐼,1.4,0.3,100,0,0,11,���쐼,2.5,21
2014/4/5,3:00:00,13,���k��,1.2,0.4,95.4,0,0,12,��,2.4,46
2014/4/5,4:00:00,13,���k��,0.9,0.5,93.6,0,0,6,�쓌,3.1,4
2014/4/5,5:00:00,9,��쐼,1,0.3,96.5,0,0,8,��,2.1,34
2014/4/5,6:00:00,15,�k�k��,1.8,-0.4,88.7,0,0.01,3,���k��,3.4,41
2014/4/5,7:00:00,13,���k��,1.1,-1,97,0.5,0.07,12,��,2.2,25
2014/4/5,8:00:00,12,��,1.4,-0.7,97.2,1,0.15,11,���쐼,3,0
2014/4/5,9:00:00,10,�쐼,0.8,0.5,92.4,0.5,0.29,14,�k��,3.4,0
2014/4/5,10:00:00,11,���쐼,2.1,1.7,79.6,0,0.34,11,���쐼,3.1,48
2014/4/5,11:00:00,9,��쐼,3,2.6,75.9,0,0.54,8,��,4.5,56
2014/4/5,12:00:00,9,��쐼,4.3,2.4,79.8,0,0.54,9,��쐼,6.7,55
2014/4/5,13:00:00,8,��,1.9,2,80.6,0,0.46,8,��,6.9,1
2014/4/5,14:00:00,8,��,2.2,3.5,74.1,0,0.39,8,��,16.7,13
2014/4/5,15:00:00,11,���쐼,4,4.2,53.4,0,0.28,11,���쐼,7.6,18
2014/4/5,16:00:00,11,���쐼,7.4,3.6,60.7,0,0.25,11,���쐼,12.3,52
2014/4/5,17:00:00,11,���쐼,6.3,3.6,57.4,0,0.14,11,���쐼,12.4,59
2014/4/5,18:00:00,13,���k��,1.3,2.6,67,0,0.03,11,���쐼,11.2,10
2014/4/5,19:00:00,12,��,2.2,1.8,73,0,0,12,��,5.4,10
2014/4/5,20:00:00,11,���쐼,5,2.9,52.4,0,0,11,���쐼,8.6,47
2014/4/5,21:00:00,11,���쐼,5.7,3.1,49.2,0,0,11,���쐼,11.7,0
2014/4/5,22:00:00,11,���쐼,6.7,2.6,47.8,0,0,11,���쐼,12.3,35
2014/4/5,23:00:00,11,���쐼,6.9,2.3,49,0,0,10,�쐼,13.2,53
2014/4/5,0:00:00,11,���쐼,6.2,2.5,50.1,0,0,12,��,10.3,55
2014/4/6,1:00:00,11,���쐼,6.3,2.3,54.1,0,0,11,���쐼,13.2,32
2014/4/6,2:00:00,10,�쐼,6.4,2.7,50.7,0,0,10,�쐼,10.4,43
2014/4/6,3:00:00,10,�쐼,5.7,2.8,52.7,0,0,10,�쐼,9.6,17
2014/4/6,4:00:00,10,�쐼,5.1,2.7,54.7,0,0,11,���쐼,10.8,23
2014/4/6,5:00:00,11,���쐼,5.9,2.8,52.5,0,0,10,�쐼,11.1,45
2014/4/6,6:00:00,10,�쐼,6.2,3.2,51.7,0,0.07,11,���쐼,11.5,40
2014/4/6,7:00:00,11,���쐼,6.1,4.2,48.8,0,0.26,11,���쐼,11.4,28
2014/4/6,8:00:00,11,���쐼,5.5,4.3,48.9,0,0.45,9,��쐼,9.7,39
2014/4/6,9:00:00,11,���쐼,7.4,5.4,50.5,0,0.5,11,���쐼,11,59
2014/4/6,10:00:00,12,��,6.5,5.7,47.2,0,0.74,10,�쐼,12.5,5
2014/4/6,11:00:00,11,���쐼,7,6.5,42.4,0,0.96,11,���쐼,12.9,58
2014/4/6,12:00:00,12,��,6.6,6.1,39.8,0,0.9,11,���쐼,11.2,0
2014/4/6,13:00:00,11,���쐼,8.3,5.9,40.3,0,0.72,10,�쐼,12.7,59
2014/4/6,14:00:00,11,���쐼,8.5,5.9,34.8,0,0.8,12,��,16.7,12
2014/4/6,15:00:00,11,���쐼,6.3,5.4,42.7,0,0.5,12,��,14.7,4
2014/4/6,16:00:00,11,���쐼,7,4.2,51,0,0.33,11,���쐼,11.8,32
2014/4/6,17:00:00,10,�쐼,6.4,2.8,60.7,0,0.11,9,��쐼,11.1,16
2014/4/6,18:00:00,11,���쐼,2.9,2.2,65.4,0,0.03,12,��,9.2,0
2014/4/6,19:00:00,11,���쐼,1.9,2,68.6,0,0,10,�쐼,5.1,13
2014/4/6,20:00:00,10,�쐼,2.5,1.5,71.7,0,0,11,���쐼,4.2,16
2014/4/6,21:00:00,14,�k��,1.3,0.7,76.6,0,0,11,���쐼,3,3
2014/4/6,22:00:00,12,��,1.4,-0.6,83.9,0,0,14,�k��,2.7,8
2014/4/6,23:00:00,2,�k��,0.5,-1.5,89.6,0,0,1,�k�k��,3.1,45
2014/4/6,0:00:00,14,�k��,1.3,-3.4,90.3,0,0,15,�k�k��,2.1,52
2014/4/7,1:00:00,12,��,1.1,-3.9,91.7,0,0,11,���쐼,3,5
2014/4/7,2:00:00,10,�쐼,0.7,-3.3,94.4,0,0,12,��,2.3,9
2014/4/7,3:00:00,13,���k��,1.2,-2.8,91.6,0,0,13,���k��,2.5,14
2014/4/7,4:00:00,12,��,1,-2.5,90.5,0,0,10,�쐼,2.7,17
2014/4/7,5:00:00,11,���쐼,1.2,-3.6,93.5,0,0.01,11,���쐼,2.2,30
2014/4/7,6:00:00,11,���쐼,1.8,-2.1,89,0,0.06,11,���쐼,2.1,58
2014/4/7,7:00:00,12,��,1.4,1.6,75.7,0,0.25,12,��,2.3,42
2014/4/7,8:00:00,9,��쐼,0.3,5,56.2,0,0.46,8,��,8.1,57
2014/4/7,9:00:00,7,��쓌,2.4,5.3,61.4,0,0.65,7,��쓌,3.6,52
2014/4/7,10:00:00,11,���쐼,2.7,7.1,50.2,0,0.79,12,��,7.4,50
2014/4/7,11:00:00,10,�쐼,2.3,8.4,42.8,0,0.88,15,�k�k��,7.5,51
2014/4/7,12:00:00,14,�k��,5.6,9.5,33.8,0,0.87,15,�k�k��,12.1,42
2014/4/7,13:00:00,12,��,7.4,9.4,33.4,0,0.87,14,�k��,11.8,44
2014/4/7,14:00:00,12,��,8,9.8,35.2,0,0.78,13,���k��,13.7,30
2014/4/7,15:00:00,13,���k��,5.7,10.1,29.7,0,0.66,10,�쐼,13.8,7
2014/4/7,16:00:00,13,���k��,5.4,9,26.7,0,0.48,13,���k��,12.5,21
2014/4/7,17:00:00,13,���k��,4.9,8.1,26.5,0,0.26,14,�k��,9.7,10
2014/4/7,18:00:00,14,�k��,3.6,6.5,29.7,0,0.06,15,�k�k��,8.1,27
2014/4/7,19:00:00,16,�k,2.7,4.8,39.7,0,0,6,�쓌,5.1,4
2014/4/7,20:00:00,14,�k��,3.7,4.1,37.7,0,0,15,�k�k��,7.1,52
2014/4/7,21:00:00,14,�k��,3.8,3.5,35.4,0,0,14,�k��,9.1,25
2014/4/7,22:00:00,14,�k��,2.6,2.6,39.8,0,0,15,�k�k��,5.3,7
2014/4/7,23:00:00,16,�k,1.7,2,39.8,0,0,15,�k�k��,6.2,9
2014/4/7,0:00:00,12,��,1.7,-1,61.9,0,0,13,���k��,2.8,28
2014/4/8,1:00:00,11,���쐼,3.7,0.8,52,0,0,13,���k��,5.6,49
2014/4/8,2:00:00,11,���쐼,2.8,-2.5,70.4,0,0,6,�쓌,4.1,3
2014/4/8,3:00:00,12,��,2.6,-2.7,72.9,0,0,13,���k��,3.7,14
2014/4/8,4:00:00,11,���쐼,2.6,-2.2,68.6,0,0,11,���쐼,4.4,19
2014/4/8,5:00:00,11,���쐼,2.7,-1.7,64.5,0,0.01,13,���k��,5.1,57
2014/4/8,6:00:00,11,���쐼,2.1,-2,68.4,0,0.07,13,���k��,5.1,1
2014/4/8,7:00:00,10,�쐼,0.9,2.5,47.1,0,0.26,11,���쐼,3.3,45
2014/4/8,8:00:00,12,��,1.7,5.7,33.3,0,0.48,15,�k�k��,2.6,7
2014/4/8,9:00:00,7,��쓌,1.9,6.6,40,0,0.66,6,�쓌,4.4,53
2014/4/8,10:00:00,7,��쓌,3.7,7.2,39.2,0,0.8,7,��쓌,5.5,51
2014/4/8,11:00:00,7,��쓌,4.8,5.6,42.5,0,0.9,7,��쓌,7.4,51
2014/4/8,12:00:00,8,��,4.3,5.1,44.1,0,0.94,8,��,7,33
2014/4/8,13:00:00,8,��,3.8,6.3,44.3,0,0.91,8,��,7.1,24
2014/4/8,14:00:00,7,��쓌,2.9,6.2,39.4,0,0.81,7,��쓌,7,2
2014/4/8,15:00:00,7,��쓌,2.7,6.1,54.6,0,0.66,7,��쓌,5.8,12
2014/4/8,16:00:00,7,��쓌,2.9,5.7,50.4,0,0.47,7,��쓌,4.4,54
2014/4/8,17:00:00,5,���쓌,2.1,4.3,71.3,0,0.26,4,��,5.6,53
2014/4/8,18:00:00,3,���k��,2.5,1,87.1,0,0.07,3,���k��,5.9,28
2014/4/8,19:00:00,2,�k��,2.4,0.4,88.2,0,0,3,���k��,4.6,0
2014/4/8,20:00:00,16,�k,1.6,-0.9,89.7,0,0,1,�k�k��,3.9,19
2014/4/8,21:00:00,14,�k��,1.3,-1.8,91.6,0,0,16,�k,2.6,18
2014/4/8,22:00:00,14,�k��,1.4,-3.1,91.5,0,0,11,���쐼,2.2,44
2014/4/8,23:00:00,15,�k�k��,1.6,-4.7,92.3,0,0,16,�k,2.4,55
2014/4/8,0:00:00,13,���k��,0.8,-5,93.7,0,0,13,���k��,2.7,44
2014/4/9,1:00:00,12,��,1.9,-5.1,94.5,0,0,12,��,3.3,48
2014/4/9,2:00:00,12,��,1.9,-5.2,94,0,0,1,�k�k��,2.9,8
2014/4/9,3:00:00,12,��,1.8,-4.6,92.2,0,0,12,��,2.9,25
2014/4/9,4:00:00,12,��,0.6,-5.1,89.6,0,0,12,��,3.3,10
2014/4/9,5:00:00,12,��,0.4,-6.7,91.1,0,0.01,12,��,1.5,41
2014/4/9,6:00:00,12,��,1.3,-3.9,92.9,0,0.08,12,��,2.5,33
2014/4/9,7:00:00,12,��,2.1,0.5,82,0,0.25,12,��,2.7,58
2014/4/9,8:00:00,8,��,2.4,3.6,63.2,0,0.46,7,��쓌,4,43
2014/4/9,9:00:00,7,��쓌,3.5,4.4,58.5,0,0.61,7,��쓌,6.3,59
2014/4/9,10:00:00,8,��,4.6,7.3,50.5,0,0.74,9,��쐼,8.4,53
2014/4/9,11:00:00,8,��,4.9,8.7,44.9,0,0.87,8,��,9.4,42
2014/4/9,12:00:00,7,��쓌,3.8,10.4,40.6,0,0.87,8,��,8.9,19
2014/4/9,13:00:00,10,�쐼,5.7,13.3,34,0,0.83,9,��쐼,10.1,32
2014/4/9,14:00:00,10,�쐼,5.7,12.8,38.5,0,0.74,10,�쐼,11.1,54
2014/4/9,15:00:00,9,��쐼,6.7,9.6,44.9,0,0.59,9,��쐼,12.8,53
2014/4/9,16:00:00,9,��쐼,7.1,6.9,60.6,0,0.4,8,��,11.8,47
2014/4/9,17:00:00,8,��,5.9,4.2,71.2,0,0.2,7,��쓌,11.5,19
2014/4/9,18:00:00,7,��쓌,6,3.3,79.2,0,0.05,8,��,12.2,20
2014/4/9,19:00:00,8,��,4.5,4.6,73.1,0,0,8,��,10.9,38
2014/4/9,20:00:00,8,��,4.3,4.3,74.5,0,0,8,��,8.3,31
2014/4/9,21:00:00,9,��쐼,4.6,4.6,73,0,0,9,��쐼,8.1,57
2014/4/9,22:00:00,9,��쐼,4.4,5.4,67.2,0,0,9,��쐼,8.4,23
2014/4/9,23:00:00,10,�쐼,1.6,4,72.9,0,0,8,��,8.1,1
2014/4/9,0:00:00,10,�쐼,2.8,5,67.8,0,0,10,�쐼,5.8,41
2014/4/10,1:00:00,12,��,1.7,2,78.8,0,0,7,��쓌,23.6,36
2014/4/10,2:00:00,9,��쐼,2.5,6.1,61.9,0,0,9,��쐼,7.3,27
2014/4/10,3:00:00,9,��쐼,3.3,7,58.3,0,0,8,��,7.4,52
2014/4/10,4:00:00,8,��,4.4,5.5,61.8,0,0,8,��,7.7,50
2014/4/10,5:00:00,9,��쐼,3.8,4.5,69.4,0,0,9,��쐼,8.6,38
2014/4/10,6:00:00,11,���쐼,0.8,3.1,79.6,0,0.02,9,��쐼,7,18
2014/4/10,7:00:00,8,��,1.1,4.8,73.3,0,0.09,11,���쐼,2.3,27
2014/4/10,8:00:00,2,�k��,2.2,6.1,66.9,0,0.17,2,�k��,3.9,54
2014/4/10,9:00:00,2,�k��,3.6,6.5,64.9,0,0.16,2,�k��,7.5,43
2014/4/10,10:00:00,4,��,3.2,4.9,79.4,0,0.12,3,���k��,5.7,22
2014/4/10,11:00:00,3,���k��,4,3,93.8,0,0.16,3,���k��,8.6,16
2014/4/10,12:00:00,13,���k��,2.3,1,95.5,0.5,0.08,2,�k��,5.6,6
2014/4/10,13:00:00,14,�k��,3,0.7,98.3,2,0.16,4,��,6,54
2014/4/10,14:00:00,15,�k�k��,3.2,0.9,95.3,1,0.15,11,���쐼,8.7,15
2014/4/10,15:00:00,15,�k�k��,2.3,1.7,89.2,0,0.12,15,�k�k��,7.3,9
2014/4/10,16:00:00,16,�k,2.4,2.6,79.3,0,0.18,16,�k,5.6,31
2014/4/10,17:00:00,15,�k�k��,2.5,2.2,77,0,0.1,16,�k,7.2,17
2014/4/10,18:00:00,16,�k,2.1,1.2,77.5,0,0.03,15,�k�k��,4.7,13
2014/4/10,19:00:00,16,�k,2.6,0.5,79,0,0,16,�k,5.2,28
2014/4/10,20:00:00,13,���k��,1.1,-1.2,88.6,0,0,2,�k��,4.1,12
2014/4/10,21:00:00,12,��,2.4,-2,91,0,0,5,���쓌,3.1,51
2014/4/10,22:00:00,12,��,1.8,-3.5,94,0,0,13,���k��,2.7,8
2014/4/10,23:00:00,12,��,1.2,-5.1,97,0,0,9,��쐼,2.2,23
2014/4/10,0:00:00,12,��,1.8,-4.7,97,0,0,11,���쐼,2.5,39
2014/4/11,1:00:00,11,���쐼,2.3,-5,96.9,0,0,12,��,3.7,48
2014/4/11,2:00:00,12,��,2,-5.3,97.9,0,0,12,��,3.1,55
2014/4/11,3:00:00,13,���k��,1.1,-5,97.3,0,0,2,�k��,2.5,50
2014/4/11,4:00:00,12,��,2.1,-4.6,95.8,0,0,5,���쓌,3.1,55
2014/4/11,5:00:00,12,��,1.5,-4.5,96.2,0,0.01,16,�k,2.7,0
2014/4/11,6:00:00,11,���쐼,2.2,-3.2,94.2,0,0.08,9,��쐼,2.8,56
2014/4/11,7:00:00,12,��,1.5,-0.7,84.3,0,0.31,12,��,2.4,23
2014/4/11,8:00:00,12,��,1.2,1.8,65.7,0,0.47,11,���쐼,3,41
2014/4/11,9:00:00,9,��쐼,0.8,2.7,59.9,0,0.67,12,��,3,35
2014/4/11,10:00:00,10,�쐼,2.2,3.8,57.5,0,0.75,9,��쐼,5.1,48
2014/4/11,11:00:00,15,�k�k��,5.2,5.6,48.8,0,0.93,4,��,10.1,49
2014/4/11,12:00:00,14,�k��,6.9,5,42.2,0,0.97,13,���k��,12.9,16
2014/4/11,13:00:00,14,�k��,5,5.9,43.6,0,0.93,11,���쐼,10.5,22
2014/4/11,14:00:00,14,�k��,6.6,6.2,35.7,0,0.8,10,�쐼,11.9,34
2014/4/11,15:00:00,14,�k��,5.9,6.1,36.2,0,0.61,14,�k��,14.2,1
2014/4/11,16:00:00,14,�k��,4.7,5.6,39.5,0,0.45,14,�k��,12,4
2014/4/11,17:00:00,13,���k��,4,4.4,37.8,0,0.26,9,��쐼,12.1,1
2014/4/11,18:00:00,14,�k��,3,2.7,49.5,0,0.07,14,�k��,10,8
2014/4/11,19:00:00,14,�k��,1,1,56.3,0,0,14,�k��,5.6,0
2014/4/11,20:00:00,13,���k��,4.1,1.9,50.2,0,0,5,���쓌,8.9,43
2014/4/11,21:00:00,13,���k��,2.8,1.1,52.1,0,0,14,�k��,8.6,6
2014/4/11,22:00:00,8,��,1.1,-3.1,72.1,0,0,9,��쐼,5.3,0
2014/4/11,23:00:00,12,��,2,-3,78.2,0,0,11,���쐼,4,0
2014/4/11,0:00:00,12,��,3.4,-0.5,63.3,0,0,10,�쐼,7.5,57
2014/4/12,1:00:00,11,���쐼,2.5,-0.8,61.1,0,0,12,��,5.9,2
2014/4/12,2:00:00,11,���쐼,3.1,-0.2,60.2,0,0,12,��,5.6,11
2014/4/12,3:00:00,7,��쓌,0.7,-3.4,71.9,0,0,9,��쐼,3.3,0
2014/4/12,4:00:00,10,�쐼,1.3,-1.8,70.3,0,0,8,��,3.6,23
2014/4/12,5:00:00,8,��,1.5,-5,80.3,0,0.01,8,��,2.9,54
2014/4/12,6:00:00,10,�쐼,1.7,-0.7,74.3,0,0.09,12,��,2.7,58
2014/4/12,7:00:00,9,��쐼,2.6,3.4,54.2,0,0.28,11,���쐼,4.6,24
2014/4/12,8:00:00,11,���쐼,3.1,5.6,41.3,0,0.48,11,���쐼,5,42
2014/4/12,9:00:00,12,��,3.6,6.8,35.8,0,0.67,7,��쓌,8.1,36
2014/4/12,10:00:00,15,�k�k��,4.2,8.6,34.3,0,0.82,14,�k��,8.9,43
2014/4/12,11:00:00,15,�k�k��,6.5,9.2,36.2,0,0.93,13,���k��,12,44
2014/4/12,12:00:00,15,�k�k��,7,9.8,36.1,0,0.96,16,�k,14.8,45
2014/4/12,13:00:00,15,�k�k��,6.6,10.2,32,0,0.92,16,�k,14.2,46
2014/4/12,14:00:00,15,�k�k��,7.4,9.6,31.6,0,0.83,1,�k�k��,15.1,42
2014/4/12,15:00:00,15,�k�k��,6.8,9.5,33,0,0.68,16,�k,15.4,39
2014/4/12,16:00:00,16,�k,8.3,7.6,27.4,0,0.5,16,�k,16.8,34
2014/4/12,17:00:00,16,�k,5.5,6.2,35.4,0,0.16,14,�k��,13.4,48
2014/4/12,18:00:00,15,�k�k��,5.7,4.6,36.9,0,0.05,15,�k�k��,12.7,18
2014/4/12,19:00:00,15,�k�k��,5.4,3.7,42,0,0,16,�k,10.7,25
2014/4/12,20:00:00,15,�k�k��,4.7,2.6,49.3,0,0,16,�k,11.9,12
2014/4/12,21:00:00,15,�k�k��,4.2,1.5,61.9,0,0,16,�k,8,11
2014/4/12,22:00:00,15,�k�k��,2.9,0.9,65.4,0,0,1,�k�k��,6.9,12
2014/4/12,23:00:00,13,���k��,2.8,0.9,63.9,0,0,16,�k,5.1,2
2014/4/12,0:00:00,11,���쐼,3.2,-0.3,73,0,0,16,�k,5.3,29
2014/4/13,1:00:00,4,��,1.6,-2.4,80.3,0,0,10,�쐼,4.7,2
2014/4/13,2:00:00,3,���k��,0.4,-2.1,79.4,0,0,2,�k��,2.3,12
2014/4/13,3:00:00,8,��,0.6,-3.1,91,0,0,9,��쐼,3.1,54
2014/4/13,4:00:00,11,���쐼,0.4,-2.2,85.1,0,0,8,��,2.6,51
2014/4/13,5:00:00,11,���쐼,2.2,-3,89.6,0,0.01,11,���쐼,3,26
2014/4/13,6:00:00,11,���쐼,1.6,-1.5,84.6,0,0.05,11,���쐼,4.2,11
2014/4/13,7:00:00,11,���쐼,2.9,1.4,69.9,0,0.2,12,��,3.9,50
2014/4/13,8:00:00,6,�쓌,0.9,3.9,56.6,0,0.5,12,��,3.2,6
2014/4/13,9:00:00,7,��쓌,2.9,3.9,53.5,0,0.61,7,��쓌,5.1,56
2014/4/13,10:00:00,7,��쓌,2.7,5.3,53.5,0,0.66,8,��,5.9,47
2014/4/13,11:00:00,8,��,4.3,4.6,52.5,0,0.78,7,��쓌,7,40
2014/4/13,12:00:00,8,��,5.1,4.5,57.6,0,0.75,8,��,7.6,23
2014/4/13,13:00:00,8,��,5.2,4,62.4,0,0.68,8,��,8.7,58
2014/4/13,14:00:00,8,��,5.4,4.3,59.5,0,0.48,8,��,9.7,3
2014/4/13,15:00:00,8,��,4.8,4.7,55.7,0,0.47,9,��쐼,9.7,37
2014/4/13,16:00:00,9,��쐼,4.1,4.8,57.7,0,0.5,8,��,8.9,40
2014/4/13,17:00:00,9,��쐼,2.8,3.2,70.1,0,0.24,9,��쐼,6.7,31
2014/4/13,18:00:00,5,���쓌,0.6,1.4,84.5,0,0.05,9,��쐼,3.7,2
2014/4/13,19:00:00,2,�k��,3,0.1,89.6,0,0,2,�k��,4.9,24
2014/4/13,20:00:00,1,�k�k��,0.9,-1,91.3,0,0,2,�k��,4.1,1
2014/4/13,21:00:00,14,�k��,0.9,-2.5,91.1,0,0,1,�k�k��,2.5,13
2014/4/13,22:00:00,14,�k��,0.6,-4.6,95,0,0,3,���k��,2.2,36
2014/4/13,23:00:00,13,���k��,1.9,-2.2,92.7,0,0,12,��,3.4,50
2014/4/13,0:00:00,14,�k��,1.1,-5.2,96.5,0,0,13,���k��,2.1,11
2014/4/14,1:00:00,12,��,2,-4.8,95.6,0,0,3,���k��,3.1,49
2014/4/14,2:00:00,11,���쐼,1.7,-6.5,96.3,0,0,11,���쐼,3,18
2014/4/14,3:00:00,13,���k��,1.7,-5.9,96.1,0,0,6,�쓌,2.9,29
2014/4/14,4:00:00,12,��,1.6,-5.5,95.6,0,0,11,���쐼,2.9,44
2014/4/14,5:00:00,14,�k��,1.6,-6.3,95.6,0,0.01,16,�k,3.1,4
2014/4/14,6:00:00,11,���쐼,1.8,-3.4,92.8,0,0.11,1,�k�k��,2.4,48
2014/4/14,7:00:00,12,��,1.3,1.5,73.3,0,0.32,7,��쓌,2.7,39
2014/4/14,8:00:00,10,�쐼,0.4,5.2,51.2,0,0.53,12,��,2.5,57
2014/4/14,9:00:00,6,�쓌,2,6.9,51.6,0,0.71,7,��쓌,3.3,48
2014/4/14,10:00:00,7,��쓌,2.8,7.9,44.4,0,0.84,8,��,4.5,58
2014/4/14,11:00:00,7,��쓌,3.7,7.8,46.3,0,0.94,7,��쓌,5.6,6
2014/4/14,12:00:00,8,��,2.8,9.1,53.4,0,0.97,7,��쓌,6,26
2014/4/14,13:00:00,9,��쐼,3.6,9.2,40.4,0,0.93,8,��,6.7,28
2014/4/14,14:00:00,9,��쐼,4.1,11.6,33.1,0,0.83,9,��쐼,7.7,52
2014/4/14,15:00:00,8,��,4.6,13.6,17.6,0,0.68,8,��,7.3,51
2014/4/14,16:00:00,8,��,3.2,13.9,17.9,0,0.5,8,��,7.1,5
2014/4/14,17:00:00,9,��쐼,2.4,13.1,26,0,0.27,9,��쐼,6.6,1
2014/4/14,18:00:00,13,���k��,1,10.1,36.9,0,0.07,9,��쐼,4.2,2
2014/4/14,19:00:00,12,��,2.7,5.4,53.4,0,0,11,���쐼,4,44
2014/4/14,20:00:00,13,���k��,1.7,1.8,67.9,0,0,11,���쐼,3.4,2
2014/4/14,21:00:00,11,���쐼,2.1,0.8,76.4,0,0,12,��,3.1,17
2014/4/14,22:00:00,14,�k��,1.7,-0.7,77.8,0,0,12,��,3.9,27
2014/4/14,23:00:00,12,��,2.3,-0.4,80.1,0,0,12,��,2.7,54
2014/4/14,0:00:00,12,��,1.9,-0.4,77.9,0,0,3,���k��,3.4,13
2014/4/15,1:00:00,11,���쐼,2.7,-0.2,76.3,0,0,5,���쓌,4.5,33
2014/4/15,2:00:00,14,�k��,0.7,-1.9,82.6,0,0,11,���쐼,4,2
2014/4/15,3:00:00,12,��,2.6,-1.9,83.3,0,0,13,���k��,3.6,18
2014/4/15,4:00:00,12,��,2.6,-2.6,85.8,0,0,12,��,3.4,53
2014/4/15,5:00:00,13,���k��,2.1,-2.2,84.6,0,0.01,11,���쐼,3.5,47
2014/4/15,6:00:00,12,��,1.9,1.6,74.7,0,0.12,1,�k�k��,4.1,49
2014/4/15,7:00:00,13,���k��,1,5.2,60.9,0,0.25,9,��쐼,2.9,0
2014/4/15,8:00:00,14,�k��,0.7,11,39.3,0,0.41,11,���쐼,2.8,27
2014/4/15,9:00:00,5,���쓌,2,13,24.9,0,0.69,6,�쓌,3.1,59
2014/4/15,10:00:00,6,�쓌,3,12.4,27.7,0,0.83,5,���쓌,4.9,43
2014/4/15,11:00:00,6,�쓌,3.1,11.5,31.2,0,0.9,5,���쓌,4.4,1
2014/4/15,12:00:00,5,���쓌,2,11.5,37.5,0,0.74,6,�쓌,4.3,18
2014/4/15,13:00:00,11,���쐼,6,17.1,22.3,0,0.61,12,��,10.2,52
2014/4/15,14:00:00,11,���쐼,5.7,15.8,28.3,0,0.32,11,���쐼,13.3,35
2014/4/15,15:00:00,10,�쐼,3.6,14.5,28.4,0,0.16,11,���쐼,11.1,18
2014/4/15,16:00:00,11,���쐼,4.5,14.1,32.2,0,0.13,12,��,12,19
2014/4/15,17:00:00,11,���쐼,7.9,9.8,59.2,0,0.03,11,���쐼,15.1,41
2014/4/15,18:00:00,11,���쐼,3.4,8.7,63.6,0,0.01,11,���쐼,11.7,24
2014/4/15,19:00:00,8,��,1.9,7.9,61.1,0,0,11,���쐼,4.5,0
2014/4/15,20:00:00,6,�쓌,1.2,6,67.5,0,0,10,�쐼,2.9,19
2014/4/15,21:00:00,10,�쐼,3.2,9.1,55.6,0,0,10,�쐼,6.3,57
2014/4/15,22:00:00,9,��쐼,1.2,8.7,61.6,0,0,10,�쐼,7.3,25
2014/4/15,23:00:00,12,��,2.5,7.3,71.9,0,0,10,�쐼,7.1,18
2014/4/15,0:00:00,13,���k��,2.5,7.8,70.7,0,0,12,��,5,23
2014/4/16,1:00:00,13,���k��,2.3,5,74.9,0,0,4,��,4.4,17
2014/4/16,2:00:00,13,���k��,3.1,5,67.1,0,0,7,��쓌,5.9,44
2014/4/16,3:00:00,14,�k��,2.9,4,56.8,0,0,2,�k��,6,8
2014/4/16,4:00:00,14,�k��,2.5,3.4,51.6,0,0,14,�k��,4.4,11
2014/4/16,5:00:00,14,�k��,2.4,1.9,56.3,0,0.01,1,�k�k��,5.7,6
2014/4/16,6:00:00,15,�k�k��,2.7,4.7,43.1,0,0.11,15,�k�k��,5.5,58
2014/4/16,7:00:00,14,�k��,2,6.7,32.4,0,0.3,16,�k,4.6,18
2014/4/16,8:00:00,15,�k�k��,2.7,8.2,29.4,0,0.52,12,��,5.7,8
2014/4/16,9:00:00,8,��,3,7.5,31.7,0,0.56,7,��쓌,6,52
2014/4/16,10:00:00,14,�k��,4.9,9.4,31.8,0,0.73,9,��쐼,9.8,38
2014/4/16,11:00:00,13,���k��,5.1,10.5,30.5,0,0.82,12,��,11.1,43
2014/4/16,12:00:00,11,���쐼,6.8,10.8,27.9,0,1.04,5,���쓌,10.6,51
2014/4/16,13:00:00,12,��,5.4,10.8,30.8,0,0.74,9,��쐼,11.2,7
2014/4/16,14:00:00,11,���쐼,5.2,8.7,32.1,0,0.5,4,��,11.3,5
2014/4/16,15:00:00,10,�쐼,7.8,9.3,30.7,0,0.48,12,��,11.9,51
2014/4/16,16:00:00,14,�k��,5.3,7.8,38.1,0,0.47,11,���쐼,13.5,9
2014/4/16,17:00:00,14,�k��,3.9,6.1,43,0,0.21,13,���k��,8.2,9
2014/4/16,18:00:00,13,���k��,3.6,5,38.6,0,0.06,14,�k��,9.9,23
2014/4/16,19:00:00,13,���k��,5.7,4.8,37.2,0,0.01,8,��,9.3,55
2014/4/16,20:00:00,16,�k,2.1,4.3,37.4,0,0,2,�k��,9.8,13
2014/4/16,21:00:00,15,�k�k��,2.1,3.7,38,0,0,9,��쐼,5.8,16
2014/4/16,22:00:00,15,�k�k��,0.9,1.9,44.6,0,0,10,�쐼,5.7,8
2014/4/16,23:00:00,10,�쐼,1.6,-2.2,64.7,0,0,6,�쓌,2.8,37
2014/4/16,0:00:00,15,�k�k��,0.7,-4.5,77.5,0,0,4,��,3.5,37
2014/4/17,1:00:00,11,���쐼,1.9,-4.2,76.6,0,0,11,���쐼,2.8,30
2014/4/17,2:00:00,13,���k��,1.3,-4.5,80.4,0,0,12,��,3.3,4
2014/4/17,3:00:00,11,���쐼,2.5,-5.9,84.3,0,0,11,���쐼,3,42
2014/4/17,4:00:00,11,���쐼,1.9,-5.9,84.5,0,0,10,�쐼,3.7,19
2014/4/17,5:00:00,11,���쐼,2.2,-6,86,0,0.01,11,���쐼,4.5,24
2014/4/17,6:00:00,12,��,1.4,-2.9,79.4,0,0.1,10,�쐼,3.4,13
2014/4/17,7:00:00,3,���k��,0.3,2.2,54.6,0,0.3,12,��,3,23
2014/4/17,8:00:00,4,��,2.5,5.7,38.3,0,0.51,4,��,3.9,59
2014/4/17,9:00:00,5,���쓌,3,6,51.8,0,0.69,5,���쓌,4.6,58
2014/4/17,10:00:00,5,���쓌,3.5,6.8,51.8,0,0.83,5,���쓌,5.6,39
2014/4/17,11:00:00,6,�쓌,4,8.5,32.6,0,0.95,6,�쓌,6.3,51
2014/4/17,12:00:00,6,�쓌,2.9,7.3,34.3,0,0.63,6,�쓌,6.7,6
2014/4/17,13:00:00,7,��쓌,3.3,7.3,33.9,0,0.45,7,��쓌,6.6,41
2014/4/17,14:00:00,7,��쓌,2.9,6.2,41.1,0,0.29,7,��쓌,6.3,58
2014/4/17,15:00:00,7,��쓌,2.5,6.3,44.6,0,0.22,8,��,6.8,17
2014/4/17,16:00:00,8,��,2.8,8.5,35.6,0,0.42,8,��,4.9,48
2014/4/17,17:00:00,9,��쐼,1.1,7,39.4,0,0.18,7,��쓌,4.1,20
2014/4/17,18:00:00,10,�쐼,0.5,4.5,55,0,0.09,8,��,2.7,9
2014/4/17,19:00:00,16,�k,1,2.9,53.4,0,0.01,14,�k��,3.2,35
2014/4/17,20:00:00,14,�k��,2,3.6,40.2,0,0,16,�k,5.9,33
2014/4/17,21:00:00,15,�k�k��,2.5,3.6,41.3,0,0,14,�k��,8.6,13
2014/4/17,22:00:00,15,�k�k��,1.7,2.4,46.1,0,0,14,�k��,4.6,24
2014/4/17,23:00:00,12,��,1.4,-1.3,64.1,0,0,13,���k��,2.5,5